Date_and_time,latitude,longitude,wind_speed,RelWindDirFrom,WindDirFrom,air_pressure,air_temperature,relative_humidity,Temp,platform_speed_wrt_ground,air_pressure_at_mean_sea_level,platform_orientation
2019-01-08 00:00,50.63046,-96.98076,12.7,19.0,258,966.34,-0.9,89,0.78,0.0,993.68,48.3
2019-01-08 00:00,50.63046,-96.98076,12.2,12.2,259,966.34,-1.2,87,0.77,0.0,993.69,54.7
2019-01-08 00:10,50.63046,-96.98076,12.0,19.8,253,966.52,-1.3,86,0.78,0.0,993.89,54.7
2019-01-08 00:20,50.63046,-96.98076,11.3,17.9,255,966.60,-1.6,87,0.78,0.0,993.99,54.7
2019-01-08 00:30,50.630425,-96.9807583333333,12.8,22.2,253,966.66,-1.7,87,0.78,0.0,994.05,54.7
2019-01-08 00:40,50.6304516666667,-96.980765,12.7,22.0,256,966.74,-2.1,88,0.78,0.0,994.15,54.7
2019-01-08 00:50,50.6304533333333,-96.9807633333333,11.8,17.9,249,966.97,-2.5,90,0.79,0.0,994.41,54.7
2019-01-08 01:00,50.630455,-96.9807616666667,12.1,19.5,255,967.13,-2.9,91,0.79,0.0,994.60,90.0
2019-01-08 01:10,50.6304566666667,-96.9807616666667,10.3,16.9,249,967.31,-3.3,95,0.79,0.0,994.80,90.0
2019-01-08 01:20,50.6304566666667,-96.9807633333333,11.8,18.8,256,967.39,-3.5,93,0.79,0.0,994.89,90.0
2019-01-08 01:30,50.6304666666667,-96.9807716666667,13.4,20.7,255,967.49,-3.6,90,0.80,0.0,995.01,90.0
2019-01-08 01:40,50.6304466666667,-96.980715,13.8,20.9,248,967.64,-3.8,90,0.80,0.0,995.18,90.0
2019-01-08 01:50,50.630455,-96.9807433333333,13.9,24.9,254,967.79,-4.0,89,0.80,0.0,995.35,90.0
2019-01-08 02:00,50.6304566666667,-96.9807416666667,13.8,24.0,254,967.92,-4.2,89,0.80,0.0,995.50,125.3
2019-01-08 02:10,50.6304583333333,-96.9807483333333,13.1,21.0,253,968.12,-4.4,90,0.80,0.0,995.73,125.3
2019-01-08 02:20,50.6304583333333,-96.9807516666667,12.7,21.7,253,968.25,-4.6,92,0.80,0.0,995.88,125.3
2019-01-08 02:30,50.6304566666667,-96.9807533333333,11.3,17.6,256,968.38,-4.7,93,0.79,0.0,996.04,125.3
2019-01-08 02:40,50.6304583333333,-96.9807533333333,11.3,17.0,256,968.57,-4.9,94,0.78,0.0,996.26,125.3
2019-01-08 02:50,50.6304583333333,-96.980755,11.8,17.8,254,968.72,-5.0,95,0.76,0.0,996.45,125.3
2019-01-08 03:00,50.6304566666667,-96.980755,12.3,19.6,252,968.91,-5.1,97,0.76,0.0,996.67,360.0
2019-01-08 03:10,50.63045,-96.980775,12.8,18.8,250,969.13,-5.3,97,0.74,0.0,996.91,360.0
2019-01-08 03:20,50.6304483333333,-96.9807666666667,12.8,19.5,255,969.29,-5.4,96,0.75,0.0,997.10,360.0
2019-01-08 03:30,50.6304466666667,-96.9807666666667,13.5,21.6,250,969.58,-5.6,95,0.76,0.0,997.41,360.0
2019-01-08 03:40,50.6304466666667,-96.9807683333333,12.0,20.1,249,969.83,-5.7,95,0.75,0.0,997.68,360.0
2019-01-08 03:50,50.63045,-96.98079,12.7,22.9,253,970.00,-5.9,96,0.75,0.0,997.88,360.0
2019-01-08 04:00,50.6304433333333,-96.9807783333333,13.0,20.3,253,970.15,-6.1,97,0.74,0.0,998.06,237.7
2019-01-08 04:10,50.63045,-96.98078,12.8,18.1,255,970.29,-6.2,96,0.75,0.0,998.21,237.7
2019-01-08 04:20,50.6304533333333,-96.9807783333333,13.2,20.0,255,970.48,-6.2,96,0.75,0.0,998.42,237.7
2019-01-08 04:30,50.6304516666667,-96.980775,14.0,22.0,259,970.69,-6.3,94,0.75,0.0,998.65,237.7
2019-01-08 04:40,50.6304533333333,-96.9807733333333,11.4,20.0,268,970.78,-6.4,95,0.74,0.0,998.75,237.7
2019-01-08 04:50,50.630455,-96.9807733333333,12.0,19.6,263,971.01,-6.6,96,0.74,0.0,999.01,237.7
2019-01-08 05:00,50.630455,-96.9807733333333,11.1,18.4,261,971.19,-6.7,94,0.75,0.0,999.21,270.0
2019-01-08 05:10,50.6304566666667,-96.9807716666667,11.4,21.2,259,971.40,-6.8,94,0.75,0.0,999.44,270.0
2019-01-08 05:20,50.6304266666667,-96.9807616666667,10.3,15.7,249,971.68,-7.1,97,0.75,0.0,999.75,270.0
2019-01-08 05:30,50.6304683333333,-96.9807783333333,10.0,15.0,250,971.80,-7.3,96,0.74,0.0,999.89,270.0
2019-01-08 05:40,50.6304533333333,-96.9807383333333,11.3,17.1,248,971.94,-7.5,95,0.75,0.0,1000.06,270.0
2019-01-08 05:50,50.6304516666667,-96.9807483333333,10.9,17.2,253,972.02,-7.6,93,0.75,0.0,1000.15,270.0
2019-01-08 06:00,50.6304533333333,-96.9807533333333,11.4,15.9,254,972.13,-7.7,92,0.76,0.0,1000.27,90.0
2019-01-08 06:10,50.6304516666667,-96.9807566666667,10.1,16.8,257,972.27,-7.7,92,0.76,0.0,1000.42,90.0
2019-01-08 06:20,50.6304533333333,-96.98076,10.4,15.8,257,972.37,-7.7,91,0.77,0.0,1000.52,90.0
2019-01-08 06:30,50.6304533333333,-96.9807616666667,10.2,15.4,255,972.51,-7.7,91,0.77,0.0,1000.68,90.0
2019-01-08 06:40,50.6304533333333,-96.9807616666667,9.3,15.1,256,972.63,-7.8,90,0.77,0.0,1000.81,90.0
2019-01-08 06:50,50.630465,-96.9807833333333,9.4,16.3,258,972.77,-7.8,89,0.76,0.0,1000.96,90.0
2019-01-08 07:00,50.6304616666667,-96.9807816666667,9.6,17.0,259,972.92,-7.9,89,0.76,0.0,1001.13,360.0
2019-01-08 07:10,50.6304583333333,-96.9807733333333,10.3,16.9,258,973.11,-7.9,87,0.76,0.0,1001.34,360.0
2019-01-08 07:20,50.63046,-96.9807616666667,9.4,15.0,261,973.28,-8.0,88,0.76,0.0,1001.54,360.0
2019-01-08 07:30,50.6304616666667,-96.98076,9.2,16.1,265,973.47,-8.0,87,0.76,0.0,1001.74,360.0
2019-01-08 07:40,50.63046,-96.98076,9.2,15.7,264,973.70,-8.1,86,0.76,0.0,1001.99,360.0
2019-01-08 07:50,50.6304566666667,-96.98076,11.2,19.8,275,973.78,-8.1,85,0.76,0.0,1002.07,360.0
2019-01-08 08:00,50.6304533333333,-96.9807566666667,12.8,19.6,269,973.99,-8.3,84,0.76,0.0,1002.30,90.0
2019-01-08 08:10,50.630495,-96.980785,15.6,26.3,276,973.95,-8.4,81,0.76,0.0,1002.27,90.0
2019-01-08 08:20,50.6304566666667,-96.9807683333333,14.7,24.3,275,974.27,-8.7,78,0.75,0.0,1002.61,90.0
2019-01-08 08:30,50.63045,-96.980785,16.1,25.7,279,974.37,-9.0,76,0.74,0.0,1002.74,90.0
2019-01-08 08:40,50.6304566666667,-96.9807766666667,13.2,20.2,284,974.76,-9.1,75,0.73,0.0,1003.14,90.0
2019-01-08 08:50,50.630455,-96.9807733333333,12.6,22.0,278,974.97,-9.1,75,0.72,0.0,1003.37,90.0
2019-01-08 09:00,50.630465,-96.980775,13.8,20.6,278,975.14,-9.2,75,0.72,0.0,1003.54,328.9
2019-01-08 09:10,50.6304383333333,-96.9807583333333,14.3,21.2,277,975.33,-9.4,75,0.72,0.0,1003.76,328.9
2019-01-08 09:20,50.6304666666667,-96.98078,11.8,24.2,274,975.66,-9.6,75,0.73,0.0,1004.11,328.9
2019-01-08 09:30,50.6304566666667,-96.9807666666667,13.5,22.7,272,975.71,-9.9,75,0.74,0.0,1004.18,328.9
2019-01-08 09:40,50.6304633333333,-96.9807616666667,11.5,20.0,273,976.00,-10.0,75,0.74,0.0,1004.48,328.9
2019-01-08 09:50,50.6304566666667,-96.9807666666667,12.6,20.1,269,976.19,-10.2,75,0.75,0.0,1004.70,328.9
2019-01-08 10:00,50.6304566666667,-96.9807683333333,11.0,16.9,273,976.30,-10.4,76,0.76,0.0,1004.83,137.2
2019-01-08 10:10,50.6304566666667,-96.9807683333333,13.2,20.3,275,976.28,-10.5,75,0.76,0.0,1004.84,137.2
2019-01-08 10:20,50.6304566666667,-96.9807683333333,13.5,22.5,272,976.51,-10.5,75,0.76,0.0,1005.09,137.2
2019-01-08 10:30,50.6304583333333,-96.98077,13.4,19.5,275,976.64,-10.6,74,0.76,0.0,1005.23,137.2
2019-01-08 10:40,50.63044,-96.9807766666667,12.3,18.8,275,976.84,-10.7,73,0.76,0.0,1005.44,137.2
2019-01-08 10:50,50.630445,-96.9807766666667,15.1,25.0,275,976.79,-10.8,73,0.76,0.0,1005.41,137.2
2019-01-08 11:00,50.6304466666667,-96.9807633333333,15.6,25.1,274,976.95,-10.9,73,0.76,0.0,1005.58,228.3
2019-01-08 11:10,50.6304483333333,-96.9807633333333,13.4,21.4,279,977.13,-11.0,74,0.76,0.0,1005.78,228.3
2019-01-08 11:20,50.63045,-96.98076,13.5,20.9,278,977.38,-11.1,75,0.75,0.0,1006.06,228.3
2019-01-08 11:30,50.6304516666667,-96.9807616666667,15.7,23.3,278,977.39,-11.2,75,0.75,0.0,1006.09,228.3
2019-01-08 11:40,50.6304516666667,-96.9807616666667,13.8,19.7,279,977.73,-11.2,75,0.75,0.0,1006.45,228.3
2019-01-08 11:50,50.6304516666667,-96.9807633333333,14.1,24.2,279,977.93,-11.3,75,0.75,0.0,1006.66,228.3
2019-01-08 12:00,50.6304516666667,-96.980765,14.0,24.0,277,978.18,-11.4,75,0.76,0.0,1006.93,156.5
2019-01-08 12:10,50.6304516666667,-96.980765,12.5,21.4,276,978.49,-11.4,75,0.76,0.0,1007.26,156.5
2019-01-08 12:20,50.6304533333333,-96.9807566666667,13.7,20.7,278,978.67,-11.4,74,0.75,0.0,1007.45,156.5
2019-01-08 12:30,50.6304516666667,-96.980755,14.3,23.8,277,978.92,-11.4,73,0.75,0.0,1007.71,156.5
2019-01-08 12:40,50.6304466666667,-96.9807633333333,12.7,18.8,277,979.33,-11.5,73,0.75,0.0,1008.14,156.5
2019-01-08 12:50,50.6304466666667,-96.9807633333333,12.3,19.9,280,979.52,-11.5,73,0.76,0.0,1008.34,156.5
2019-01-08 13:00,50.6304483333333,-96.9807633333333,11.9,21.7,278,979.62,-11.6,74,0.76,0.0,1008.46,142.0
2019-01-08 13:10,50.63045,-96.980765,13.4,24.2,280,979.69,-11.6,73,0.75,0.0,1008.54,142.0
2019-01-08 13:20,50.6304516666667,-96.9807666666667,11.5,19.8,283,979.97,-11.5,73,0.75,0.0,1008.82,142.0
2019-01-08 13:30,50.6304533333333,-96.98079,10.8,17.5,283,980.18,-11.5,72,0.75,0.0,1009.04,142.0
2019-01-08 13:40,50.6304566666667,-96.980765,10.9,17.3,283,980.30,-11.5,72,0.75,0.0,1009.17,142.0
2019-01-08 13:50,50.630465,-96.9807616666667,11.9,19.9,280,980.49,-11.5,72,0.75,0.0,1009.37,142.0
2019-01-08 14:00,50.6304533333333,-96.980775,12.5,20.4,283,980.64,-11.5,72,0.75,0.0,1009.53,311.7
2019-01-08 14:10,50.6304483333333,-96.9807766666667,11.1,18.9,283,980.99,-11.5,72,0.75,0.0,1009.89,311.7
2019-01-08 14:20,50.630445,-96.9807733333333,10.5,19.8,282,981.24,-11.6,72,0.75,0.0,1010.15,311.7
2019-01-08 14:30,50.6304433333333,-96.9807733333333,12.4,19.7,281,981.44,-11.6,73,0.74,0.0,1010.36,311.7
2019-01-08 14:40,50.630445,-96.9807716666667,10.5,20.0,281,981.77,-11.7,73,0.74,0.0,1010.70,311.7
2019-01-08 14:50,50.6304466666667,-96.9807716666667,11.3,18.3,283,981.87,-11.7,73,0.74,0.0,1010.81,311.7
2019-01-08 15:00,50.6304483333333,-96.9807716666667,11.7,18.6,284,982.07,-11.7,73,0.75,0.0,1011.02,192.6
2019-01-08 15:10,50.6304483333333,-96.9807716666667,12.2,20.5,285,982.26,-11.7,74,0.75,0.0,1011.21,192.6
2019-01-08 15:20,50.6304483333333,-96.98077,13.6,21.6,287,982.38,-11.7,73,0.74,0.0,1011.34,192.6
2019-01-08 15:30,50.63045,-96.9807716666667,13.2,20.8,285,982.65,-11.7,73,0.74,0.0,1011.61,192.6
2019-01-08 15:40,50.6304483333333,-96.9807716666667,13.5,20.3,285,982.83,-11.7,72,0.74,0.0,1011.80,192.6
2019-01-08 15:50,50.6304533333333,-96.9807633333333,12.8,19.7,288,983.07,-11.7,73,0.75,0.0,1012.05,192.6
2019-01-08 16:00,50.630455,-96.98077,15.3,23.9,284,983.14,-11.8,74,0.75,0.0,1012.12,38.0
2019-01-08 16:10,50.6304383333333,-96.980785,14.5,22.9,286,983.43,-11.8,75,0.75,0.0,1012.43,38.0
2019-01-08 16:20,50.6304516666667,-96.9807683333333,13.0,20.3,285,983.81,-11.8,75,0.75,0.0,1012.82,38.0
2019-01-08 16:30,50.6304533333333,-96.9807733333333,12.0,21.1,290,984.08,-11.8,76,0.75,0.0,1013.10,38.0
2019-01-08 16:40,50.630455,-96.98077,12.9,21.1,293,984.31,-11.7,73,0.75,0.0,1013.33,38.0
2019-01-08 16:50,50.630455,-96.98077,11.8,18.5,294,984.55,-11.7,75,0.75,0.0,1013.58,38.0
2019-01-08 17:00,50.630445,-96.9807633333333,12.3,22.9,287,984.71,-11.7,75,0.76,0.0,1013.75,165.5
2019-01-08 17:10,50.630455,-96.980765,12.1,19.7,290,984.78,-11.7,73,0.76,0.0,1013.81,165.5
2019-01-08 17:20,50.6304533333333,-96.98077,13.9,20.9,295,984.75,-11.6,72,0.76,0.0,1013.78,165.5
2019-01-08 17:30,50.6304533333333,-96.9807683333333,12.7,18.3,299,985.04,-11.6,73,0.76,0.0,1014.09,165.5
2019-01-08 17:40,50.6304516666667,-96.980765,14.9,23.0,298,984.94,-11.7,69,0.74,0.0,1013.98,165.5
2019-01-08 17:50,50.6304566666667,-96.9807633333333,11.5,19.2,290,985.24,-11.7,70,0.73,0.0,1014.29,165.5
2019-01-08 18:00,50.6304533333333,-96.9807633333333,12.5,21.2,289,985.29,-11.7,71,0.74,0.0,1014.35,48.3
2019-01-08 18:10,50.6304733333333,-96.98078,14.1,21.6,292,985.28,-11.8,72,0.74,0.0,1014.35,48.3
2019-01-08 18:20,50.63045,-96.9807633333333,14.2,20.3,292,985.48,-11.8,72,0.73,0.0,1014.55,48.3
2019-01-08 18:30,50.630445,-96.9807666666667,15.8,23.0,293,985.50,-11.9,70,0.71,0.0,1014.57,48.3
2019-01-08 18:40,50.6304566666667,-96.9807766666667,15.6,23.3,291,985.79,-11.9,69,0.68,0.0,1014.86,48.3
2019-01-08 18:50,50.63045,-96.9807766666667,14.0,20.6,292,986.15,-11.9,69,0.68,0.0,1015.24,48.3
2019-01-08 19:00,50.6304516666667,-96.980775,12.9,21.2,295,986.41,-11.9,69,0.70,0.0,1015.51,270.0
2019-01-08 19:10,50.6304516666667,-96.980775,13.8,20.7,297,986.55,-12.0,69,0.71,0.0,1015.65,270.0
2019-01-08 19:20,50.63045,-96.980775,11.3,19.6,288,986.97,-11.9,70,0.72,0.0,1016.08,270.0
2019-01-08 19:30,50.6304516666667,-96.9807716666667,11.6,19.6,292,987.19,-12.0,69,0.71,0.0,1016.31,270.0
2019-01-08 19:40,50.6304533333333,-96.98077,13.5,21.6,289,987.25,-11.9,69,0.71,0.0,1016.37,270.0
2019-01-08 19:50,50.6304516666667,-96.98077,13.1,20.4,286,987.40,-12.0,68,0.72,0.0,1016.53,270.0
2019-01-08 20:00,50.630435,-96.980755,12.2,18.2,294,987.58,-12.0,70,0.72,0.0,1016.72,131.7
2019-01-08 20:10,50.63045,-96.980775,12.8,18.5,296,987.79,-12.0,70,0.73,0.0,1016.94,131.7
2019-01-08 20:20,50.6304533333333,-96.9807666666667,13.2,20.9,297,987.94,-12.0,69,0.74,0.0,1017.10,131.7
2019-01-08 20:30,50.6304566666667,-96.9807666666667,12.5,20.1,297,988.25,-11.9,68,0.74,0.0,1017.42,131.7
2019-01-08 20:40,50.6304516666667,-96.9807633333333,13.1,21.7,296,988.49,-11.9,68,0.74,0.0,1017.66,131.7
2019-01-08 20:50,50.630485,-96.9807816666667,15.1,23.1,298,988.62,-12.0,66,0.74,0.0,1017.80,131.7
2019-01-08 21:00,50.63045,-96.9807766666667,14.1,22.6,296,989.03,-12.0,66,0.75,0.0,1018.22,270.0
2019-01-08 21:10,50.6304483333333,-96.98078,11.5,19.0,288,989.57,-11.9,67,0.74,0.0,1018.77,270.0
2019-01-08 21:20,50.63045,-96.9807783333333,11.9,18.7,286,989.89,-12.0,68,0.74,0.0,1019.11,270.0
2019-01-08 21:30,50.63045,-96.9807766666667,12.6,20.0,288,990.07,-12.1,67,0.74,0.0,1019.29,270.0
2019-01-08 21:40,50.63045,-96.9807733333333,14.5,21.2,292,990.09,-12.3,67,0.74,0.0,1019.33,270.0
2019-01-08 21:50,50.630455,-96.9807733333333,14.0,24.6,290,990.30,-12.4,66,0.73,0.0,1019.56,270.0
2019-01-08 22:00,50.6304516666667,-96.9807716666667,12.8,20.1,292,990.63,-12.5,67,0.72,0.0,1019.91,0.0
2019-01-08 22:10,50.6304516666667,-96.98077,12.7,19.5,291,990.86,-12.6,67,0.71,0.0,1020.14,0.0
2019-01-08 22:20,50.6304516666667,-96.9807666666667,11.9,17.5,294,991.15,-12.7,68,0.69,0.0,1020.45,0.0
2019-01-08 22:30,50.6304283333333,-96.9807583333333,10.6,17.4,278,991.53,-12.9,70,0.67,0.0,1020.84,0.0
2019-01-08 22:40,50.6304433333333,-96.98076,11.6,18.3,288,991.58,-13.1,69,0.66,0.0,1020.91,0.0
2019-01-08 22:50,50.6304483333333,-96.980765,12.6,19.9,292,991.76,-13.2,67,0.64,0.0,1021.10,0.0
2019-01-08 23:00,50.63045,-96.9807666666667,10.9,18.8,292,992.16,-13.3,67,0.63,0.0,1021.51,360.0
2019-01-08 23:10,50.6304483333333,-96.9807633333333,11.0,18.0,290,992.34,-13.4,66,0.63,0.0,1021.71,360.0
2019-01-08 23:20,50.6304483333333,-96.9807633333333,12.4,20.1,293,992.43,-13.5,66,0.63,0.0,1021.81,360.0
2019-01-08 23:30,50.63047,-96.9807666666667,12.5,20.2,297,992.63,-13.5,65,0.63,0.0,1022.03,360.0
2019-01-08 23:40,50.6304616666667,-96.98077,12.5,19.5,293,992.90,-13.7,65,0.62,0.0,1022.32,360.0
